Regional Weather Roundup
Issued by NWS

Home | Current Version | Previous Version | Graphics & Text | Print | Product List | Glossary On
Versions: 1 2 3 4 5 6 7 8 9 10 11 12 13 14 15 16 17 18 19 20 21 22 23 24 25 26 27 28 29 30 31 32 33 34 35 36 37 38 39 40 41 42 43 44 45 46 47 48 49 50
000
ASUS43 KFSD 061902
RWRSD

WEATHER ROUNDUP FOR SOUTH DAKOTA
NATIONAL WEATHER SERVICE SIOUX FALLS SD
200 PM CDT MON JUL 06 2015

NOTE: "FAIR" INDICATES FEW OR NO CLOUDS BELOW 12,000 FEET WITH NO
SIGNIFICANT WEATHER AND/OR OBSTRUCTIONS TO VISIBILITY.


SDZ001>005-009-010-012>017-062000-
NORTHWEST AND NORTH CENTRAL SOUTH DAKOTA

CITY           SKY/WX    TMP DP  RH WIND       PRES   REMARKS
BUFFALO          N/A     70  51  51 W9        30.16S
FAITH            N/A     72  52  49 N10       30.19S
MOBRIDGE       MOSUNNY   74  52  46 N12       30.12S HAZE
$$

SDZ012>016-024>037-041>051-057-063-072>074-062000-
SOUTHWEST AND SOUTH CENTRAL SOUTH DAKOTA

CITY           SKY/WX    TMP DP  RH WIND       PRES   REMARKS
RAPID CTY ARPT CLOUDY    68  54  60 NW9       30.23F
PIERRE         MOSUNNY   75  55  49 N15       30.12S
CUSTER         CLOUDY    55  50  83 SW5       30.31S HAZE
ELLSWORTH AFB  MOSUNNY   68  54  60 N8        30.23F
PHILIP         PTSUNNY   72  54  53 NW9G21    30.17F
PINE RIDGE     PTSUNNY   69  53  56 N10G16    30.23S HAZE
WINNER         MOCLDY    75  53  46 N20       30.13R HAZE
$$

SDZ004>011-016>023-039-040-062000-
NORTHEAST SOUTH DAKOTA

CITY           SKY/WX    TMP DP  RH WIND       PRES   REMARKS
ABERDEEN       MOSUNNY   71  55  56 N18       30.10R
WATERTOWN      MOSUNNY   70  55  59 N22G30    30.05S HAZE
BROOKINGS      MOSUNNY   68  59  73 N18G25    30.05S
SISSETON         N/A     69  52  54 N18G28    30.06S
$$

SDZ017-020-022-023-036>040-048>070-062000-
SOUTHEAST SOUTH DAKOTA

CITY           SKY/WX    TMP DP  RH WIND       PRES   REMARKS
SIOUX FALLS    CLOUDY    72  61  68 N20G29    30.01R HAZE
HURON          CLOUDY    73  61  65 N18G26    30.07R HAZE
MITCHELL       CLOUDY    75  61  61 N20G30    30.06R HAZE
YANKTON        PTSUNNY   73  63  68 N16       30.00R
$$

ABBREVIATIONS USED IN REMARKS
   TC - TEMPERATURE IN CELSIUS
  WCI - WIND CHILL INDEX
   HX - HEAT INDEX
  VSB - VISIBILITY




USA.gov is the U.S. government's official web portal to all federal, state and local government web resources and services.